This is the latest recevied weather packets stored in our database for station/object N0QV. If no packets are shown the sender has not sent any weather packets the latest 10 day(s).
| Time | Temp. | Humidity | Pressure | Rain* | Wind** | Luminosity | Snow |
|---|---|---|---|---|---|---|---|
| 1787964527 | 23.89° C | 72% | 1016.3 hPa | 0 mm | - | 5 W/m² | - |
| 1787964222 | 23.89° C | 71% | 1016.5 hPa | 0 mm | - | 8 W/m² | - |
| 1787963921 | 24.44° C | 71% | 1016.4 hPa | 0 mm | - | 10 W/m² | - |
| 1787963617 | 24.44° C | 70% | 1016.2 hPa | 0 mm | - | 14 W/m² | - |
| 1787963312 | 24.44° C | 71% | 1016.5 hPa | 0 mm | - | 15 W/m² | - |
| 1787963011 | 24.44° C | 71% | 1016.5 hPa | 0 mm | - | 15 W/m² | - |
| 1787962711 | 24.44° C | 72% | 1016.1 hPa | 0 mm | - | 19 W/m² | - |
| 1787962410 | 24.44° C | 71% | 1016.4 hPa | 0 mm | - | 25 W/m² | - |
| 1787962110 | 24.44° C | 71% | 1016.5 hPa | 0 mm | - | 26 W/m² | - |
| 1787961804 | 24.44° C | 71% | 1016.5 hPa | 0 mm | - | 30 W/m² | - |
| 1787961502 | 24.44° C | 72% | 1016.8 hPa | 0 mm | - | 31 W/m² | - |
| 1787961202 | 24.44° C | 71% | 1016.5 hPa | 0 mm | - | 33 W/m² | - |
| 1787960901 | 25° C | 71% | 1016.8 hPa | 0 mm | - | 25 W/m² | - |
| 1787960597 | 25° C | 70% | 1016.9 hPa | 0 mm | - | 25 W/m² | - |
| 1787960295 | 25° C | 69% | 1016.9 hPa | 0 mm | - | 23 W/m² | - |
| 1787959990 | 25° C | 69% | 1017.1 hPa | 0 mm | - | 30 W/m² | - |
| 1787959685 | 25.56° C | 68% | 1017.1 hPa | 0 mm | - | 45 W/m² | - |
| 1787959380 | 25.56° C | 68% | 1017 hPa | 0 mm | - | 58 W/m² | - |
| 1787959075 | 25.56° C | 67% | 1017.2 hPa | 0 mm | - | 66 W/m² | - |
| 1787958770 | 25.56° C | 67% | 1017.4 hPa | 0 mm | - | 66 W/m² | - |
| 1787958466 | 25.56° C | 67% | 1017.2 hPa | 0 mm | - | 62 W/m² | - |
| 1787958161 | 25.56° C | 66% | 1016.9 hPa | 0 mm | - | 59 W/m² | - |
| 1787957860 | 25.56° C | 66% | 1017 hPa | 0 mm | - | 69 W/m² | - |
| 1787957554 | 26.11° C | 66% | 1017.2 hPa | 0 mm | - | 83 W/m² | - |
| 1787957249 | 26.11° C | 65% | 1017.3 hPa | 0 mm | - | 88 W/m² | - |
* Rain latest hour (hover to see other rain measurements)
** Current wind speed in m/s (hover to see current wind gust speed)